User: anonymous   Login
Location: Unspecified
(0.0000°N, 0.0000°E)
Time: 10:55:13
(UTC+00:00)
Language:

Shinsei - Orbit

View from above orbital plane
View from above orbital plane
View from above satellite
View from above satellite

Ground track
Ground track

The orbit data is extracted from the following two-line orbital elements,

1  5485U 71080A   17268.88663175 +.00000013 +00000-0 -39484-4 0  9993
2  5485 032.0548 208.2867 0640540 214.2731 141.4886 12.74125347142687
Epoch (UTC): 25 September 2017 21:16:44
Eccentricity: 0.0640540
inclination: 32.0548°
perigee height: 869 km
apogee height: 1861 km
right ascension of ascending node: 208.2867°
argument of perigee: 214.2731°
revolutions per day: 12.74125347
mean anomaly at epoch: 141.4886°
orbit number at epoch: 14268

The dashed part of the orbit path shows where the satellite is in the earth's shadow,  

DLR